Flag for Sweden Weather past 2 weeks in Norrköping, Sweden

Now
N/A

Overcast.


Feels Like: N/A
Forecast: 42 / 56 °F
Wind: 8 mph from Southwest

Location: Norrkoping Airport

Current Time: Apr 25, 2015 at 3:38:47 PM

Latest Report: Apr 25, 2015 at 3:20 PM


Visibility: N/A

Pressure: 29.59 "Hg

Humidity: N/A

Dew point: N/A

Location of NorrköpingLocation

Historic Weather in Norrköping — Graph

°F

Norrköping temperature yesterday

Maximum temperature yesterday: 54 °F (at 2:20 PM)
Minimum temperature yesterday: 41 °F (at 4:50 AM)
Average temperature yesterday: 47 °F

Past Weeks' High & Low Weather Summary

 TemperatureHumidityPressure
High64 °F (Apr 20, 5:50 PM)100% (Apr 11, 3:50 AM)30.24 "Hg (Apr 11, 3:50 AM)
Low27 °F (Apr 14, 5:50 AM)15% (Apr 20, 6:20 PM)29.39 "Hg (Apr 15, 6:50 PM)
Average47 °F61%29.88 "Hg
* Reported Apr 10 2:20 PM — Apr 25 2:20 PM, Norrköping, Weather by CustomWeather, © 2015

Note: Actual official high and low records may vary slightly from our data, if they occured in-between our weather recording intervals... More about our weather records

Advertising

Norrköping weather history for previous 24 hours

 ConditionsComfort  
Time TempWeatherWind HumidityBarometerVisibility
2:20 PM
Sat, Apr 25
N/APartly sunny.10 mphN/A29.59 "HgN/A
1:50 PMN/AOvercast.13 mphN/A29.59 "HgN/A
1:20 PM59 °FPartly sunny.16 mph55%29.59 "HgN/A
12:50 PM61 °FScattered clouds.13 mph52%29.59 "HgN/A
12:20 PM59 °FPassing clouds.10 mph55%29.62 "HgN/A
11:50 AM57 °FPassing clouds.12 mph59%29.62 "HgN/A
11:20 AM57 °FPassing clouds.12 mph59%29.62 "HgN/A
10:50 AM55 °FPassing clouds.12 mph59%29.65 "HgN/A
10:20 AM55 °FPassing clouds.12 mph59%29.65 "HgN/A
9:50 AM55 °FSunny.12 mph63%29.65 "Hg10 mi
9:20 AM54 °FSunny.12 mph67%29.65 "Hg10 mi
8:50 AM52 °FSunny.9 mph72%29.65 "Hg10 mi
8:20 AM50 °FSunny.9 mph71%29.65 "Hg10 mi
7:50 AM48 °FPassing clouds.6 mph71%29.68 "HgN/A
7:20 AM46 °FOvercast.7 mph76%29.68 "HgN/A
6:50 AM45 °FOvercast.6 mph81%29.68 "HgN/A
6:20 AM45 °FOvercast.6 mph76%29.68 "HgN/A
5:20 AM41 °FMostly cloudy.6 mph81%29.68 "HgN/A
4:50 AM41 °FPartly cloudy.6 mph81%29.68 "HgN/A
4:20 AM41 °FPassing clouds.5 mph81%29.71 "HgN/A
3:50 AM41 °FOvercast.5 mph81%29.71 "HgN/A
3:20 AM43 °FMostly cloudy.2 mph71%29.71 "HgN/A
2:50 AM41 °FMostly cloudy.3 mph81%29.71 "HgN/A
2:20 AM43 °FMostly cloudy.2 mph71%29.71 "HgN/A
1:50 AM43 °FMostly cloudy.1 mph66%29.71 "HgN/A
1:20 AM43 °FOvercast.5 mph66%29.71 "HgN/A
12:50 AM43 °FOvercast.6 mph66%29.71 "HgN/A
12:20 AM43 °FOvercast.3 mph66%29.71 "HgN/A
11:20 PM
Fri, Apr 24
41 °FQuite cool.3 mph66%29.71 "HgN/A
10:50 PM43 °FQuite cool.2 mph66%29.71 "HgN/A
10:20 PM43 °FQuite cool.3 mph61%29.71 "HgN/A
9:50 PM45 °FClear.2 mph57%29.71 "Hg10 mi
9:20 PM45 °FSunny.2 mph57%29.71 "Hg10 mi
8:50 PM46 °FSunny.6 mph53%29.71 "Hg10 mi
8:20 PM48 °FSunny.9 mph50%29.68 "Hg10 mi
7:50 PM50 °FSunny.12 mph47%29.68 "Hg10 mi
7:20 PM50 °FSunny.13 mph43%29.68 "Hg10 mi
6:50 PM50 °FSunny.20 mph40%29.68 "Hg10 mi
6:20 PM52 °FSunny.17 mph38%29.68 "Hg10 mi
5:50 PM52 °FSunny.18 mph35%29.68 "Hg10 mi
5:20 PM54 °FSunny.21 mph35%29.68 "Hg10 mi
4:50 PM54 °FSunny.15 mph38%29.65 "Hg10 mi
4:20 PM54 °FSunny.20 mph38%29.65 "Hg10 mi
3:50 PM54 °FSunny.17 mph38%29.65 "Hg10 mi
3:20 PM54 °FSunny.16 mph38%29.65 "Hg10 mi
Weather by CustomWeather, © 2015

See weather overviewHow to use our weather pages